Weather History for Baltimore, MD

Change the Weather History Date:

Sunday, November 11, 2012

  Actual Average Record
Temperature  
Mean Temperature 51 °F 48 °F  
Max Temperature 66 °F 58 °F 77 °F (1949)
Min Temperature 36 °F 38 °F 21 °F (1973)
Degree Days  
Heating Degree Days 14 17  
Month to date heating degree days 226 170  
Since 1 July heating degree days 482 517  
Cooling Degree Days 0 0  
Month to date cooling degree days 0 0  
Year to date cooling degree days 1569 1163  
Growing Degree Days 2 (Base 50)    
Moisture  
Dew Point 42 °F    
Average Humidity 69    
Maximum Humidity 93    
Minimum Humidity 45    
Precipitation  
Precipitation 0.00 in 0.10 in 1.34 in (1987)
Month to date precipitation 0.06 1.21  
Year to date precipitation 33.66 36.42  
Snow  
Snow 0.00 in 0.00 in 6.00 in (1987)
Month to date snowfall 0.0 0.1  
Since 1 July snowfall 0.0 0.1  
Snow Depth 0.00 in    
Sea Level Pressure  
Sea Level Pressure 30.42 in    
Wind  
Wind Speed 3 mph (ESE)    
Max Wind Speed 10 mph    
Max Gust Speed 13 mph    
Visibility 8 miles    
Events      
T = Trace of Precipitation, MM = Missing Value Source: NWS Daily Summary

Daily Weather History Graph

Daily Weather History Graph

Search for Another Location

Airport:

Trip Planner

Search our weather history database for the weather conditions in past years. The results will help you decide how hot, cold, wet, or windy it might be!

Date:

Astronomy

Nov. 11, 2012 Rise Set
Actual Time 6:46 AM EST 4:55 PM EST
Civil Twilight 6:17 AM EST 5:23 PM EST
Nautical Twilight 5:45 AM EST 5:55 PM EST
Astronomical Twilight 5:13 AM EST 6:27 PM EST
Moon 3:58 AM EST (11/11) 3:16 PM EST (11/11)
Length of Visible Light 11h 05m
Length of Day
10h 09m
Waning Crescent, 7% of the Moon is Illuminated
Nov 11
Waning Crescent
Nov 13
New
Nov 20
First Quarter
Nov 28
Full
Dec 6
Last Quarter

Hourly Weather History & Observations

Time (EST) Temp. Dew Point Humidity Pressure Visibility Wind Dir Wind Speed Gust Speed Precip Events Conditions
12:54 AM 41.0 °F 37.9 °F 89% 30.37 in 9.0 mi Calm Calm - N/A   Clear
1:54 AM 39.9 °F 37.9 °F 93% 30.37 in 8.0 mi Calm Calm - N/A   Clear
2:54 AM 39.0 °F 37.0 °F 93% 30.37 in 8.0 mi Calm Calm - N/A   Clear
3:54 AM 39.0 °F 37.0 °F 93% 30.38 in 7.0 mi Calm Calm - N/A   Clear
4:54 AM 37.0 °F 36.0 °F 96% 30.40 in 7.0 mi Calm Calm - N/A   Clear
5:54 AM 37.9 °F 36.0 °F 93% 30.41 in 7.0 mi Calm Calm - N/A   Clear
6:54 AM 37.0 °F 35.1 °F 93% 30.44 in 4.0 mi Calm Calm - N/A   Clear
7:54 AM 41.0 °F 39.2 °F 93% 30.46 in 4.0 mi Calm Calm - N/A   Clear
8:54 AM 48.0 °F 44.1 °F 86% 30.47 in 4.0 mi Calm Calm - N/A   Clear
9:54 AM 55.0 °F 46.0 °F 72% 30.47 in 7.0 mi Calm Calm - N/A   Clear
10:54 AM 57.9 °F 44.1 °F 60% 30.46 in 10.0 mi ESE 4.6 mph - N/A   Clear
11:54 AM 62.1 °F 43.0 °F 50% 30.44 in 10.0 mi East 4.6 mph - N/A   Clear
12:54 PM 63.0 °F 46.9 °F 56% 30.41 in 10.0 mi ENE 5.8 mph - N/A   Clear
1:54 PM 64.9 °F 46.9 °F 52% 30.39 in 10.0 mi ENE 6.9 mph - N/A   Clear
2:54 PM 66.0 °F 44.1 °F 45% 30.39 in 10.0 mi ESE 10.4 mph - N/A   Scattered Clouds
3:54 PM 63.0 °F 43.0 °F 48% 30.40 in 10.0 mi ESE 9.2 mph - N/A   Mostly Cloudy
4:54 PM 61.0 °F 44.1 °F 54% 30.41 in 10.0 mi SE 5.8 mph - N/A   Mostly Cloudy
5:54 PM 59.0 °F 44.1 °F 58% 30.43 in 10.0 mi SE 4.6 mph - N/A   Mostly Cloudy
6:54 PM 57.9 °F 44.1 °F 60% 30.43 in 10.0 mi SE 3.5 mph - N/A   Mostly Cloudy
7:54 PM 55.9 °F 44.1 °F 64% 30.44 in 10.0 mi SE 4.6 mph - N/A   Partly Cloudy
8:54 PM 55.0 °F 44.1 °F 67% 30.44 in 10.0 mi Calm Calm - N/A   Partly Cloudy
9:54 PM 52.0 °F 44.1 °F 74% 30.43 in 10.0 mi Calm Calm - N/A   Clear
10:54 PM 48.0 °F 43.0 °F 83% 30.43 in 10.0 mi Calm Calm - N/A   Partly Cloudy
11:54 PM 46.0 °F 42.1 °F 86% 30.43 in 10.0 mi Calm Calm - N/A   Clear